Location: Mahannah Oil Field
(37.4664°N, 96.6003°W)
Time: 19:05:40
(UTC+00:00)

Vanguard 2 Rocket - Pass Details

Date: 25 January 2021
Orbit: 554 x 3326 km, 32.9° (Epoch: 26 February)

Event Time Altitude Azimuth Distance (km) Brightness Sun altitude
Rises 20:47:05 0° 238° (WSW) 7,072 12.5 26.2°
Reaches altitude 10° 20:52:22 10° 235° (SW) 5,794 12.4 25.6°
Maximum altitude 21:08:10 55° 164° (SSE) 2,394 9.7 23.7°
Drops below altitude 10° 21:17:23 10° 90° (E) 3,523 9.6 22.6°
Sets 21:19:48 0° 85° (E) 4,213 9.9 22.2°
